This is the latest recevied weather packets stored in our database for station/object N3WMC. If no packets are shown the sender has not sent any weather packets the latest 1 day(s).
| Time | Temp. | Humidity | Pressure | Rain* | Wind** | Luminosity | Snow |
|---|---|---|---|---|---|---|---|
| 1778035885 | 19.44° C | 54% | 1008.1 hPa | 0 mm | - | 0 W/m² | - |
| 1778035279 | 20° C | 53% | 1008.4 hPa | 0 mm | - | 0 W/m² | - |
| 1778034976 | 20° C | 52% | 1008.4 hPa | 0 mm | - | 0 W/m² | - |
| 1778034673 | 20° C | 52% | 1008.3 hPa | 0 mm | - | 0 W/m² | - |
| 1778034068 | 20° C | 52% | 1008.2 hPa | 0 mm | - | 0 W/m² | - |
| 1778033462 | 20° C | 52% | 1008.2 hPa | 0 mm | - | 0 W/m² | - |
| 1778032857 | 20° C | 51% | 1008.4 hPa | 0 mm | - | 0 W/m² | - |
| 1778032554 | 20° C | 51% | 1008.4 hPa | 0 mm | - | 0 W/m² | - |
| 1778032251 | 20° C | 51% | 1008.5 hPa | 0 mm | - | 0 W/m² | - |
| 1778031949 | 20° C | 51% | 1008.5 hPa | 0 mm | - | 0 W/m² | - |
| 1778031644 | 20° C | 51% | 1008.4 hPa | 0 mm | - | 0 W/m² | - |
| 1778031343 | 20° C | 50% | 1008.5 hPa | 0 mm | - | 0 W/m² | - |
| 1778031039 | 20° C | 50% | 1008.3 hPa | 0 mm | - | 0 W/m² | - |
| 1778030735 | 20.56° C | 50% | 1008.3 hPa | 0 mm | - | 0 W/m² | - |
| 1778030432 | 20.56° C | 50% | 1008.3 hPa | 0 mm | - | 0 W/m² | - |
| 1778030130 | 20.56° C | 50% | 1008.3 hPa | 0 mm | - | 0 W/m² | - |
| 1778029826 | 20.56° C | 50% | 1008.2 hPa | 0 mm | - | 0 W/m² | - |
| 1778028614 | 21.11° C | 48% | 1008.5 hPa | 0 mm | - | 0 W/m² | - |
| 1778028312 | 21.11° C | 49% | 1008.5 hPa | 0 mm | - | 0 W/m² | - |
| 1778027401 | 21.11° C | 47% | 1008.6 hPa | 0 mm | - | 0 W/m² | - |
| 1778026187 | 21.67° C | 46% | 1008.6 hPa | 0 mm | - | 3 W/m² | - |
| 1778023765 | 21.67° C | 52% | 1008.2 hPa | 0 mm | - | 15 W/m² | - |
| 1778023463 | 21.67° C | 52% | 1008.4 hPa | 0 mm | - | 28 W/m² | - |
| 1778022857 | 21.67° C | 52% | 1008.3 hPa | 0 mm | - | 36 W/m² | - |
| 1778022555 | 21.67° C | 53% | 1008.4 hPa | 0 mm | - | 30 W/m² | - |
* Rain latest hour (hover to see other rain measurements)
** Current wind speed in m/s (hover to see current wind gust speed)